Regional Weather Roundup
Issued by NWS

Home | Current Version | Previous Version | Graphics & Text | Print | Product List | Glossary On
Versions: 1 2 3 4 5 6 7 8 9 10 11 12 13 14 15 16 17 18 19 20 21 22 23 24 25 26 27 28 29 30 31 32 33 34 35 36 37 38 39 40 41 42 43 44 45 46 47 48 49 50
000
ASUS43 KTOP 272208
RWRKS

WEATHER ROUNDUP FOR KANSAS
NATIONAL WEATHER SERVICE GOODLAND KS
500 PM CDT WED AUG 27 2014

NOTE:  "FAIR" INDICATES FEW OR NO CLOUDS BELOW 12,000 FEET WITH NO
SIGNIFICANT WEATHER AND/OR OBSTRUCTIONS TO VISIBILITY.

KSZ001>006-013>018-027>032-041>047-272300-
NORTHWEST KANSAS

CITY           SKY/WX    TMP DP  RH WIND       PRES   REMARKS
GOODLAND       PTSUNNY   78  65  63 S12       30.03F
HAYS           PTSUNNY   81  64  57 SE15      30.02F
HILL CITY      LGT RAIN  70  69  97 E10       30.01F FOG
RUSSELL        PTSUNNY   79  67  66 SE15      30.01F
$$

KSZ061>065-074>080-084>089-272300-
SOUTHWEST KANSAS

CITY           SKY/WX    TMP DP  RH WIND       PRES   REMARKS
DODGE CITY     MOSUNNY   84  67  56 S20G25    30.02F
ELKHART          N/A     86  59  40 S17         N/A
GARDEN CITY    PTSUNNY   74  68  81 E8        30.02F THUNDER
GREAT BEND     PTSUNNY   86  66  51 S16       30.01F
LIBERAL        PTSUNNY   73  64  73 S22       30.06R THUNDER
PRATT          PTSUNNY   86  64  48 SE9       30.03F
$$

KSZ066>073-081>083-090>101-272300-
SOUTHEAST KANSAS

CITY           SKY/WX    TMP DP  RH WIND       PRES   REMARKS
CHANUTE        MOSUNNY   96  63  33 S9        30.00F HX  97
COFFEYVILLE    MOSUNNY   94  66  39 VRB3      29.99F HX  97
HUTCHINSON     CLOUDY    88  66  48 SE8       30.01F
MEDICINE LODGE   N/A     91  62  37 S12G17    29.98F
NEWTON         CLOUDY    90  63  40 S13       30.06F
PARSONS        MOSUNNY   96  65  35 VRB5      30.01F HX  98
WICHITA INTL   CLOUDY    91  64  40 SE10      30.00F
WICHITA JABRA  PTSUNNY   90  63  40 S9G16     30.01F
WICHITA MCCONL PTSUNNY   91  64  40 SE9       30.01F
WINFIELD       MOSUNNY   93  65  39 SE14      30.02F HX  95
$$

KSZ007>012-019>026-033>040-048>060-102>105-272300-
NORTHEAST KANSAS

CITY           SKY/WX    TMP DP  RH WIND       PRES   REMARKS
CONCORDIA      PTSUNNY   83  74  74 E9        30.03F
EMPORIA        PTSUNNY   91  64  40 E5        30.01F
LAWRENCE       PTSUNNY   89  71  55 E12       30.04F HX  95
MANHATTAN      CLOUDY    88  71  57 E10       30.01F
MARYSVILLE     CLOUDY    79  72  78 SE8       30.04F
OLATHE IND     MOSUNNY   86  71  60 E12       30.05F
OLATHE EXE     MOSUNNY   86  73  65 SE10G17   30.04F
SALINA         CLOUDY    86  66  51 N6        30.02F
TOPEKA BILLARD CLOUDY    86  74  67 NE10      30.03F
TOPEKA FORBES  PTSUNNY   87  71  58 NE9       30.03F
$$


USA.gov is the U.S. government's official web portal to all federal, state and local government web resources and services.